Regional Weather Roundup
Issued by NWS

Home | Current Version | Previous Version | Text Only | Print | Product List | Glossary Off
Versions: 1 2 3 4 5 6 7 8 9 10 11 12 13 14 15 16 17 18 19 20 21 22 23 24 25 26 27 28 29 30 31 32 33 34 35 36 37 38 39 40 41 42 43 44 45 46 47 48 49 50

000
ASUS43 KTOP 180759
RWRKS

WEATHER ROUNDUP FOR KANSAS
NATIONAL WEATHER SERVICE GOODLAND KS
300 AM CDT SAT APR 18 2015

NOTE:  "FAIR" INDICATES FEW OR NO CLOUDS BELOW 12,000 FEET WITH NO
SIGNIFICANT WEATHER AND/OR OBSTRUCTIONS TO VISIBILITY.

KSZ001>006-013>018-027>032-041>047-180900-
NORTHWEST KANSAS

CITY           SKY/WX    TMP DP  RH WIND       PRES   REMARKS
GOODLAND       MOCLDY    43  42  97 NW3       29.93F
HAYS           CLOUDY    55  45  67 NW12      29.93F
HILL CITY      LGT RAIN  52  48  86 N13       29.92F
RUSSELL        LGT RAIN  60  56  86 W14       29.93R
$$

KSZ061>065-074>080-084>089-180900-
SOUTHWEST KANSAS

CITY           SKY/WX    TMP DP  RH WIND       PRES   REMARKS
DODGE CITY     CLOUDY    56  53  90 S10       29.94S
ELKHART          N/A    N/A N/A N/A MISG        N/A
GARDEN CITY    PTCLDY    47  45  93 E5        29.93S
GREAT BEND     CLOUDY    59  54  82 S7        29.94S
LIBERAL        MOCLDY    54  48  82 S14       29.95S
$$

KSZ066>073-081>083-090>101-180900-
SOUTHEAST KANSAS

CITY           SKY/WX    TMP DP  RH WIND       PRES   REMARKS
CHANUTE        CLOUDY    62  61  96 SE7       29.93F
COFFEYVILLE    CLOUDY    61  60  97 CALM      29.92F
HUTCHINSON     CLOUDY    60  57  89 SE6       29.92F
MEDICINE LODGE   N/A     59  57  93 S6        29.93F
NEWTON         CLOUDY    59  54  82 SE7       29.95S
PARSONS        CLOUDY    62  61  96 CALM      29.94F
WICHITA INTL   CLOUDY    64  59  83 SE6       29.93S
WICHITA JABRA  TSTM      61  58  90 E5        29.93S
WICHITA MCCONL CLOUDY    63  59  88 E5        29.93S THUNDER
WINFIELD       CLOUDY    63  60  90 MISG      29.94S
$$

KSZ007>012-019>026-033>040-048>060-102>105-180900-
NORTHEAST KANSAS

CITY           SKY/WX    TMP DP  RH WIND       PRES   REMARKS
CONCORDIA      CLOUDY    58  56  93 E3        29.92F
EMPORIA        CLOUDY    59  57  93 SE6       29.93F
LAWRENCE       CLOUDY    57  55  93 CALM      29.94F
MANHATTAN      CLOUDY    59  57  93 CALM      29.92F
OLATHE IND     CLOUDY    62  58  86 E5        29.95F
OLATHE EXE     CLOUDY    64  59  83 CALM      29.94F
SALINA         CLOUDY    60  56  86 SE7       29.92F
TOPEKA BILLARD CLOUDY    58  56  93 CALM      29.94F
TOPEKA FORBES  CLOUDY    60  56  86 E3        29.94F
$$



USA.gov is the U.S. government's official web portal to all federal, state and local government web resources and services.